Location: Bakov nad Jizerou
(50.4784°N, 14.9394°E)
Time: 19:31:47
(UTC+00:00)

Cosmos 1703 - Pass Details

Date: 23 October 2021
Orbit: 521 x 539 km, 82.5° (Epoch: 01 December)

Event Time Altitude Azimuth Distance (km) Brightness Sun altitude
Rises 16:47:15 0° 347° (NNW) 2,694 6.9 -9.4°
Reaches altitude 10° 16:49:25 10° 345° (NNW) 1,795 6.0 -9.7°
Maximum altitude 16:53:20 69° 263° (W) 573 3.6 -10.4°
Drops below altitude 10° 16:57:12 10° 180° (S) 1,768 6.0 -11.0°
Sets 16:59:19 0° 178° (S) 2,649 6.8 -11.3°
